Regional Weather Roundup
Issued by NWS

Home | Current Version | Previous Version | Text Only | Print | Product List | Glossary On
Versions: 1 2 3 4 5 6 7 8 9 10 11 12 13 14 15 16 17 18 19 20 21 22 23 24 25 26 27 28 29 30 31 32 33 34 35 36 37 38 39 40 41 42 43 44 45 46 47 48 49 50
000
ASUS46 KPQR 271110
RWROR

OREGON REGIONAL WEATHER ROUNDUP
NATIONAL WEATHER SERVICE PORTLAND OR
300 AM PST FRI FEB 27 2015

NOTE: "FAIR" INDICATES FEW OR NO CLOUDS BELOW 12,000 FEET WITH
NO SIGNIFICANT WEATHER AND/OR OBSTRUCTIONS TO VISIBILITY.

ORZ001>013-271200-
NORTHWEST OREGON


CITY           SKY/WX    TMP DP  RH WIND       PRES   REMARKS
ASTORIA        CLOUDY    48  45  89 W7        29.76F
NEWPORT        CLOUDY    46  45  93 W7G20     29.86F
PORTLAND       RAIN      48  48 100 E5        29.77F FOG
VANCOUVER WA   LGT RAIN  48  47  96 E5        29.76F
SCAPPOOSE      LGT RAIN  49  47  93 S6        29.75F
HILLSBORO      CLOUDY    48  47  96 CALM      29.75F
AURORA         CLOUDY    48  47  96 S8        29.77F
MCMINNVILLE    CLOUDY    49  46  90 SW12      29.77F
SALEM          CLOUDY    49  46  90 S6        29.77F
CORVALLIS      CLOUDY    52  46  82 W6        29.81F
EUGENE         MOCLDY    49  45  86 W9        29.82F
$$

ORZ021-028-271200-
SOUTHWEST OREGON


CITY           SKY/WX    TMP DP  RH WIND       PRES   REMARKS
NORTH BEND     MOCLDY    52  48  87 NW8       29.90F
BROOKINGS      LGT RAIN  48  48 100 NW9       29.92F FOG
ROSEBURG       MOCLDY    48  46  93 CALM      29.85F
SEXTON SUMMIT  LGT RAIN  38  38 100 VRB7      29.83F VSB 1/4 WCI  33
MEDFORD        CLOUDY    46  44  93 CALM      29.87F
$$

ORZ014>016-041-271200-
COLUMBIA GORGE


CITY           SKY/WX    TMP DP  RH WIND       PRES   REMARKS
TROUTDALE      RAIN      49  47  93 CALM      29.76F FOG
THE DALLES     CLOUDY    47  42  83 CALM      29.78F
$$

ORZ029>031-041-044-049-050-061>064-502-503-505>511-271200-
EASTERN OREGON


CITY           SKY/WX    TMP DP  RH WIND       PRES   REMARKS
REDMOND        LGT RAIN  38  37  97 S7        29.75F WCI  33
BEND           LGT RAIN  37  36  93 CALM      29.75F
PRINEVILLE     LGT RAIN  39  36  87 S5        29.76F
KLAMATH FALLS  CLOUDY    38  35  89 S3        29.82F
LAKEVIEW       CLOUDY    34  30  86 S6        29.82F WCI  29
HERMISTON      CLOUDY    39  37  92 CALM      29.79F
PENDLETON      MOCLDY    40  36  86 E7        29.78F
JOHN DAY       CLOUDY    36  34  94 SE6       29.79F WCI  31
MEACHAM        MOCLDY    32  29  88 CALM      29.77F
LA GRANDE      MOCLDY    36  28  75 N5        29.80F WCI  32
BAKER CITY     CLOUDY    32  31  96 S3        29.81F
BURNS          MOCLDY    25  22  88 E5        29.80F WCI  19
ROME             N/A     35  32  88 S10       29.79F WCI  27
ONTARIO        CLOUDY    35  30  82 S3        29.84F
$$



USA.gov is the U.S. government's official web portal to all federal, state and local government web resources and services.